PRIVATE WETTERSTATION BILLIGHEIM-ALLFELD                       ZURCK
Wetterdaten: Samstag, 11.02.2017
Datum Zeit Temp. A. Temp. A. min Temp. A. max Feuchte A. Luftdruck Regen Wind Richtung Richtung Sonnenschein ET Solar Taupunkt Windchill Windben Empfang
11.02.2017 00:00 -2,2 C -2,2 C -2,1 C 91 % 1020,5 hPa 0,0 l/m 0,0 km/h (0 Bft) O-NO 67 0 min 0,000 mm 0 W/m -3,5 C -2,2 C 3,2 km/h (1 Bft) 100 %
11.02.2017 00:10 -2,3 C -2,3 C -2,2 C 91 % 1020,7 hPa 0,0 l/m 0,0 km/h (0 Bft) N 360 0 min 0,000 mm 0 W/m -3,6 C -2,3 C 6,4 km/h (2 Bft) 91 %
11.02.2017 00:20 -2,4 C -2,4 C -2,3 C 91 % 1020,7 hPa 0,0 l/m 0,0 km/h (0 Bft) N 0 0 min 0,000 mm 0 W/m -3,7 C -2,4 C 0,0 km/h (0 Bft) 100 %
11.02.2017 00:30 -2,6 C -2,6 C -2,4 C 91 % 1020,7 hPa 0,0 l/m 0,0 km/h (0 Bft) N 0 0 min 0,000 mm 0 W/m -3,9 C -2,6 C 0,0 km/h (0 Bft) 100 %
11.02.2017 00:40 -2,7 C -2,7 C -2,6 C 92 % 1020,8 hPa 0,0 l/m 0,0 km/h (0 Bft) N 0 0 min 0,000 mm 0 W/m -3,8 C -2,7 C 0,0 km/h (0 Bft) 100 %
11.02.2017 00:50 -2,8 C -2,8 C -2,7 C 91 % 1020,7 hPa 0,0 l/m 0,0 km/h (0 Bft) N 0 0 min 0,000 mm 0 W/m -4,1 C -2,8 C 0,0 km/h (0 Bft) 100 %
11.02.2017 01:00 -2,8 C -2,8 C -2,8 C 91 % 1020,7 hPa 0,0 l/m 0,0 km/h (0 Bft) N 0 0 min 0,000 mm 0 W/m -4,1 C -2,8 C 0,0 km/h (0 Bft) 100 %
11.02.2017 01:10 -2,9 C -2,9 C -2,8 C 91 % 1020,6 hPa 0,0 l/m 3,2 km/h (1 Bft) NO 45 0 min 0,000 mm 0 W/m -4,2 C -2,9 C 8,0 km/h (2 Bft) 100 %
11.02.2017 01:20 -2,8 C -2,9 C -2,8 C 92 % 1020,6 hPa 0,0 l/m 0,0 km/h (0 Bft) N 0 0 min 0,000 mm 0 W/m -3,9 C -2,8 C 0,0 km/h (0 Bft) 100 %
11.02.2017 01:30 -2,8 C -2,9 C -2,8 C 91 % 1020,5 hPa 0,0 l/m 0,0 km/h (0 Bft) N-NO 22 0 min 0,000 mm 0 W/m -4,1 C -2,8 C 3,2 km/h (1 Bft) 100 %
11.02.2017 01:40 -2,6 C -2,8 C -2,6 C 92 % 1020,6 hPa 0,0 l/m 1,6 km/h (1 Bft) NO 45 0 min 0,000 mm 0 W/m -3,7 C -2,6 C 4,8 km/h (1 Bft) 100 %
11.02.2017 01:50 -2,5 C -2,6 C -2,5 C 92 % 1020,6 hPa 0,0 l/m 0,0 km/h (0 Bft) NO 45 0 min 0,000 mm 0 W/m -3,6 C -2,5 C 3,2 km/h (1 Bft) 100 %
11.02.2017 02:00 -2,5 C -2,5 C -2,4 C 92 % 1020,9 hPa 0,0 l/m 0,0 km/h (0 Bft) NW 315 0 min 0,000 mm 0 W/m -3,6 C -2,5 C 4,8 km/h (1 Bft) 100 %
11.02.2017 02:10 -2,7 C -2,7 C -2,5 C 92 % 1020,6 hPa 0,0 l/m 0,0 km/h (0 Bft) N 0 0 min 0,000 mm 0 W/m -3,8 C -2,7 C 0,0 km/h (0 Bft) 100 %
11.02.2017 02:20 -2,8 C -2,8 C -2,7 C 92 % 1020,5 hPa 0,0 l/m 0,0 km/h (0 Bft) N 0 0 min 0,000 mm 0 W/m -3,9 C -2,8 C 0,0 km/h (0 Bft) 92 %
11.02.2017 02:30 -2,9 C -2,9 C -2,8 C 92 % 1020,4 hPa 0,0 l/m 0,0 km/h (0 Bft) NW 315 0 min 0,000 mm 0 W/m -4,0 C -2,9 C 3,2 km/h (1 Bft) 100 %
11.02.2017 02:40 -3,0 C -3,0 C -2,9 C 92 % 1020,5 hPa 0,0 l/m 0,0 km/h (0 Bft) N-NW 337 0 min 0,000 mm 0 W/m -4,1 C -3,0 C 4,8 km/h (1 Bft) 100 %
11.02.2017 02:50 -2,9 C -3,0 C -2,9 C 92 % 1020,5 hPa 0,0 l/m 0,0 km/h (0 Bft) N 360 0 min 0,000 mm 0 W/m -4,0 C -2,9 C 1,6 km/h (1 Bft) 100 %
11.02.2017 03:00 -2,7 C -2,9 C -2,7 C 92 % 1020,4 hPa 0,0 l/m 1,6 km/h (1 Bft) NO 45 0 min 0,000 mm 0 W/m -3,8 C -2,7 C 8,0 km/h (2 Bft) 100 %
11.02.2017 03:10 -2,7 C -2,7 C -2,7 C 92 % 1020,4 hPa 0,0 l/m 0,0 km/h (0 Bft) O-NO 67 0 min 0,000 mm 0 W/m -3,8 C -2,7 C 4,8 km/h (1 Bft) 100 %
11.02.2017 03:20 -2,7 C -2,7 C -2,7 C 92 % 1020,2 hPa 0,0 l/m 0,0 km/h (0 Bft) O-NO 67 0 min 0,000 mm 0 W/m -3,8 C -2,7 C 1,6 km/h (1 Bft) 100 %
11.02.2017 03:30 -2,7 C -2,7 C -2,7 C 92 % 1020,7 hPa 0,0 l/m 0,0 km/h (0 Bft) N 0 0 min 0,000 mm 0 W/m -3,8 C -2,7 C 0,0 km/h (0 Bft) 90 %
11.02.2017 03:40 -2,7 C -2,7 C -2,7 C 92 % 1020,6 hPa 0,0 l/m 0,0 km/h (0 Bft) NO 45 0 min 0,000 mm 0 W/m -3,8 C -2,7 C 3,2 km/h (1 Bft) 100 %
11.02.2017 03:50 -2,8 C -2,8 C -2,7 C 92 % 1020,5 hPa 0,0 l/m 0,0 km/h (0 Bft) N 0 0 min 0,000 mm 0 W/m -3,9 C -2,8 C 0,0 km/h (0 Bft) 100 %
11.02.2017 04:00 -2,8 C -2,8 C -2,8 C 92 % 1020,3 hPa 0,0 l/m 0,0 km/h (0 Bft) N 0 0 min 0,000 mm 0 W/m -3,9 C -2,8 C 0,0 km/h (0 Bft) 100 %
11.02.2017 04:10 -3,0 C -3,0 C -2,8 C 92 % 1020,3 hPa 0,0 l/m 0,0 km/h (0 Bft) N 0 0 min 0,000 mm 0 W/m -4,1 C -3,0 C 0,0 km/h (0 Bft) 100 %
11.02.2017 04:20 -3,1 C -3,1 C -3,0 C 92 % 1020,6 hPa 0,0 l/m 0,0 km/h (0 Bft) NO 45 0 min 0,000 mm 0 W/m -4,2 C -3,1 C 4,8 km/h (1 Bft) 100 %
11.02.2017 04:30 -3,3 C -3,3 C -3,1 C 92 % 1020,6 hPa 0,0 l/m 0,0 km/h (0 Bft) N 0 0 min 0,000 mm 0 W/m -4,4 C -3,3 C 0,0 km/h (0 Bft) 100 %
11.02.2017 04:40 -3,4 C -3,4 C -3,2 C 92 % 1020,6 hPa 0,0 l/m 0,0 km/h (0 Bft) N 0 0 min 0,000 mm 0 W/m -4,5 C -3,4 C 0,0 km/h (0 Bft) 90 %
11.02.2017 04:50 -3,5 C -3,5 C -3,4 C 92 % 1020,5 hPa 0,0 l/m 0,0 km/h (0 Bft) N 0 0 min 0,000 mm 0 W/m -4,6 C -3,5 C 0,0 km/h (0 Bft) 100 %
11.02.2017 05:00 -3,5 C -3,6 C -3,5 C 92 % 1020,2 hPa 0,0 l/m 0,0 km/h (0 Bft) O-NO 67 0 min 0,000 mm 0 W/m -4,6 C -3,5 C 6,4 km/h (2 Bft) 100 %
11.02.2017 05:10 -3,0 C -3,5 C -3,0 C 92 % 1020,2 hPa 0,0 l/m 0,0 km/h (0 Bft) O-NO 67 0 min 0,000 mm 0 W/m -4,1 C -3,0 C 6,4 km/h (2 Bft) 100 %
11.02.2017 05:20 -2,8 C -3,0 C -2,8 C 92 % 1020,0 hPa 0,0 l/m 1,6 km/h (1 Bft) O-SO 112 0 min 0,000 mm 0 W/m -3,9 C -2,8 C 8,0 km/h (2 Bft) 100 %
11.02.2017 05:30 -2,6 C -2,8 C -2,6 C 92 % 1020,0 hPa 0,0 l/m 0,0 km/h (0 Bft) NW 315 0 min 0,000 mm 0 W/m -3,7 C -2,6 C 9,7 km/h (2 Bft) 100 %
11.02.2017 05:40 -2,7 C -2,7 C -2,6 C 92 % 1020,2 hPa 0,0 l/m 0,0 km/h (0 Bft) N 360 0 min 0,000 mm 0 W/m -3,8 C -2,7 C 4,8 km/h (1 Bft) 100 %
11.02.2017 05:50 -2,8 C -2,8 C -2,7 C 92 % 1020,1 hPa 0,0 l/m 0,0 km/h (0 Bft) N 0 0 min 0,000 mm 0 W/m -3,9 C -2,8 C 0,0 km/h (0 Bft) 100 %
11.02.2017 06:00 -2,9 C -2,9 C -2,7 C 92 % 1020,1 hPa 0,0 l/m 0,0 km/h (0 Bft) N-NO 22 0 min 0,000 mm 0 W/m -4,0 C -2,9 C 1,6 km/h (1 Bft) 100 %
11.02.2017 06:10 -3,0 C -3,0 C -2,9 C 92 % 1020,3 hPa 0,0 l/m 0,0 km/h (0 Bft) N 0 0 min 0,000 mm 0 W/m -4,1 C -3,0 C 0,0 km/h (0 Bft) 100 %
11.02.2017 06:20 -3,2 C -3,2 C -3,0 C 92 % 1020,4 hPa 0,0 l/m 0,0 km/h (0 Bft) N 0 0 min 0,000 mm 0 W/m -4,3 C -3,2 C 0,0 km/h (0 Bft) 100 %
11.02.2017 06:30 -3,3 C -3,3 C -3,2 C 92 % 1020,4 hPa 0,0 l/m 0,0 km/h (0 Bft) N 0 0 min 0,000 mm 0 W/m -4,4 C -3,3 C 0,0 km/h (0 Bft) 100 %
11.02.2017 06:40 -3,4 C -3,4 C -3,3 C 92 % 1020,3 hPa 0,0 l/m 0,0 km/h (0 Bft) N 0 0 min 0,000 mm 0 W/m -4,5 C -3,4 C 0,0 km/h (0 Bft) 100 %
11.02.2017 06:50 -3,6 C -3,6 C -3,4 C 92 % 1020,1 hPa 0,0 l/m 0,0 km/h (0 Bft) N 0 0 min 0,000 mm 0 W/m -4,7 C -3,6 C 0,0 km/h (0 Bft) 90 %
11.02.2017 07:00 -3,6 C -3,6 C -3,5 C 92 % 1020,2 hPa 0,0 l/m 0,0 km/h (0 Bft) N 0 0 min 0,000 mm 0 W/m -4,7 C -3,6 C 0,0 km/h (0 Bft) 100 %
11.02.2017 07:10 -3,6 C -3,6 C -3,6 C 92 % 1020,6 hPa 0,0 l/m 0,0 km/h (0 Bft) N 0 0 min 0,000 mm 0 W/m -4,7 C -3,6 C 0,0 km/h (0 Bft) 100 %
11.02.2017 07:20 -3,5 C -3,6 C -3,5 C 92 % 1020,6 hPa 0,0 l/m 0,0 km/h (0 Bft) N 0 0 min 0,000 mm 0 W/m -4,6 C -3,5 C 0,0 km/h (0 Bft) 100 %
11.02.2017 07:30 -3,3 C -3,5 C -3,3 C 92 % 1020,6 hPa 0,0 l/m 0,0 km/h (0 Bft) N 360 0 min 0,000 mm 0 W/m -4,4 C -3,3 C 1,6 km/h (1 Bft) 100 %
11.02.2017 07:40 -3,1 C -3,3 C -3,1 C 92 % 1020,7 hPa 0,0 l/m 0,0 km/h (0 Bft) N 0 0 min 0,000 mm 0 W/m -4,2 C -3,1 C 0,0 km/h (0 Bft) 100 %
11.02.2017 07:50 -3,1 C -3,1 C -3,1 C 92 % 1020,6 hPa 0,0 l/m 0,0 km/h (0 Bft) N 0 0 min 0,000 mm 9 W/m -4,2 C -3,1 C 0,0 km/h (0 Bft) 100 %
11.02.2017 08:00 -3,0 C -3,1 C -3,0 C 92 % 1020,6 hPa 0,0 l/m 0,0 km/h (0 Bft) N 0 0 min 0,000 mm 12 W/m -4,1 C -3,0 C 0,0 km/h (0 Bft) 100 %
11.02.2017 08:10 -2,9 C -3,0 C -2,9 C 92 % 1020,6 hPa 0,0 l/m 0,0 km/h (0 Bft) N 0 0 min 0,000 mm 16 W/m -4,0 C -2,9 C 0,0 km/h (0 Bft) 100 %
11.02.2017 08:20 -2,9 C -2,9 C -2,9 C 92 % 1020,6 hPa 0,0 l/m 0,0 km/h (0 Bft) N 0 0 min 0,000 mm 25 W/m -4,0 C -2,9 C 0,0 km/h (0 Bft) 100 %
11.02.2017 08:30 -2,8 C -2,9 C -2,8 C 92 % 1020,7 hPa 0,0 l/m 0,0 km/h (0 Bft) N 0 0 min 0,000 mm 33 W/m -3,9 C -2,8 C 0,0 km/h (0 Bft) 100 %
11.02.2017 08:40 -2,5 C -2,7 C -2,5 C 92 % 1020,7 hPa 0,0 l/m 0,0 km/h (0 Bft) N 0 0 min 0,000 mm 37 W/m -3,6 C -2,5 C 0,0 km/h (0 Bft) 100 %
11.02.2017 08:50 -2,2 C -2,5 C -2,2 C 92 % 1020,9 hPa 0,0 l/m 0,0 km/h (0 Bft) N 0 0 min 0,000 mm 46 W/m -3,3 C -2,2 C 0,0 km/h (0 Bft) 100 %
11.02.2017 09:00 -2,0 C -2,2 C -2,0 C 92 % 1020,9 hPa 0,0 l/m 0,0 km/h (0 Bft) N 0 0 min 0,000 mm 56 W/m -3,1 C -2,0 C 0,0 km/h (0 Bft) 100 %
11.02.2017 09:10 -1,8 C -2,0 C -1,8 C 92 % 1020,9 hPa 0,0 l/m 0,0 km/h (0 Bft) N 360 0 min 0,000 mm 56 W/m -2,9 C -1,8 C 1,6 km/h (1 Bft) 89 %
11.02.2017 09:20 -1,6 C -1,8 C -1,6 C 92 % 1020,9 hPa 0,0 l/m 0,0 km/h (0 Bft) N 360 0 min 0,000 mm 93 W/m -2,7 C -1,6 C 3,2 km/h (1 Bft) 100 %
11.02.2017 09:30 -1,3 C -1,6 C -1,3 C 92 % 1020,7 hPa 0,0 l/m 0,0 km/h (0 Bft) N 360 0 min 0,000 mm 121 W/m -2,4 C -1,3 C 3,2 km/h (1 Bft) 100 %
11.02.2017 09:40 -1,0 C -1,3 C -1,0 C 92 % 1020,8 hPa 0,0 l/m 0,0 km/h (0 Bft) N 360 10 min 0,000 mm 199 W/m -2,1 C -1,0 C 3,2 km/h (1 Bft) 100 %
11.02.2017 09:50 -0,6 C -1,0 C -0,6 C 91 % 1020,9 hPa 0,0 l/m 0,0 km/h (0 Bft) N 360 0 min 0,000 mm 149 W/m -1,9 C -0,6 C 1,6 km/h (1 Bft) 100 %
11.02.2017 10:00 -0,4 C -0,6 C -0,4 C 90 % 1021,0 hPa 0,0 l/m 0,0 km/h (0 Bft) N 0 0 min 0,025 mm 128 W/m -1,8 C -0,4 C 0,0 km/h (0 Bft) 100 %
11.02.2017 10:10 -0,3 C -0,4 C -0,3 C 90 % 1020,8 hPa 0,0 l/m 0,0 km/h (0 Bft) N-NO 22 0 min 0,000 mm 130 W/m -1,7 C -0,3 C 4,8 km/h (1 Bft) 100 %
11.02.2017 10:20 0,0 C -0,3 C 0,0 C 90 % 1020,7 hPa 0,0 l/m 0,0 km/h (0 Bft) N 0 10 min 0,000 mm 179 W/m -1,4 C 0,0 C 0,0 km/h (0 Bft) 100 %
11.02.2017 10:30 0,4 C 0,0 C 0,4 C 89 % 1020,6 hPa 0,0 l/m 0,0 km/h (0 Bft) N-NO 22 10 min 0,000 mm 221 W/m -1,2 C 0,4 C 1,6 km/h (1 Bft) 90 %
11.02.2017 10:40 0,9 C 0,4 C 0,9 C 89 % 1020,8 hPa 0,0 l/m 0,0 km/h (0 Bft) N 0 10 min 0,000 mm 316 W/m -0,7 C 0,9 C 0,0 km/h (0 Bft) 100 %
11.02.2017 10:50 1,4 C 0,9 C 1,4 C 85 % 1020,7 hPa 0,0 l/m 0,0 km/h (0 Bft) N-NO 22 10 min 0,000 mm 318 W/m -0,8 C 1,4 C 1,6 km/h (1 Bft) 100 %
11.02.2017 11:00 1,4 C 1,4 C 1,4 C 85 % 1020,8 hPa 0,0 l/m 0,0 km/h (0 Bft) N-NO 22 10 min 0,051 mm 271 W/m -0,8 C 1,4 C 4,8 km/h (1 Bft) 100 %
11.02.2017 11:10 1,4 C 1,4 C 1,4 C 85 % 1020,7 hPa 0,0 l/m 1,6 km/h (1 Bft) N-NO 22 10 min 0,000 mm 283 W/m -0,8 C 1,4 C 4,8 km/h (1 Bft) 100 %
11.02.2017 11:20 1,6 C 1,4 C 1,6 C 85 % 1020,7 hPa 0,0 l/m 0,0 km/h (0 Bft) N-NO 22 10 min 0,000 mm 533 W/m -0,6 C 1,6 C 3,2 km/h (1 Bft) 100 %
11.02.2017 11:30 2,5 C 1,6 C 2,5 C 84 % 1020,8 hPa 0,0 l/m 0,0 km/h (0 Bft) N-NO 22 10 min 0,000 mm 543 W/m 0,1 C 2,5 C 6,4 km/h (2 Bft) 100 %
11.02.2017 11:40 3,0 C 2,5 C 3,0 C 80 % 1020,9 hPa 0,0 l/m 0,0 km/h (0 Bft) O-NO 67 10 min 0,000 mm 408 W/m -0,1 C 3,0 C 6,4 km/h (2 Bft) 100 %
11.02.2017 11:50 2,9 C 2,9 C 3,0 C 80 % 1020,8 hPa 0,0 l/m 0,0 km/h (0 Bft) O-SO 112 10 min 0,000 mm 185 W/m -0,2 C 2,9 C 1,6 km/h (1 Bft) 100 %
11.02.2017 12:00 2,9 C 2,9 C 2,9 C 81 % 1020,5 hPa 0,0 l/m 0,0 km/h (0 Bft) O-SO 112 10 min 0,102 mm 193 W/m -0,0 C 2,9 C 3,2 km/h (1 Bft) 100 %
11.02.2017 12:10 2,9 C 2,9 C 2,9 C 81 % 1020,5 hPa 0,0 l/m 0,0 km/h (0 Bft) O-SO 119 10 min 0,000 mm 186 W/m -0,0 C 2,9 C 0,0 km/h (0 Bft) 97 %
11.02.2017 12:20 3,2 C 2,9 C 3,2 C 81 % 1020,4 hPa 0,0 l/m 0,2 km/h (0 Bft) O-SO 117 10 min 0,000 mm 188 W/m 0,3 C 3,2 C 3,2 km/h (1 Bft) 98 %
11.02.2017 12:30 3,3 C 3,2 C 3,3 C 80 % 1020,3 hPa 0,0 l/m 0,3 km/h (0 Bft) O-SO 102 10 min 0,000 mm 181 W/m 0,2 C 3,3 C 6,4 km/h (2 Bft) 97 %
11.02.2017 12:40 3,5 C 3,3 C 3,5 C 80 % 1020,2 hPa 0,0 l/m 0,3 km/h (0 Bft) O 101 10 min 0,000 mm 209 W/m 0,4 C 3,5 C 3,2 km/h (1 Bft) 97 %
11.02.2017 12:50 3,7 C 3,5 C 3,7 C 80 % 1020,1 hPa 0,0 l/m 0,5 km/h (0 Bft) O 96 10 min 0,000 mm 241 W/m 0,6 C 3,7 C 4,8 km/h (1 Bft) 97 %
11.02.2017 13:00 4,1 C 3,7 C 4,1 C 80 % 1020,0 hPa 0,0 l/m 0,2 km/h (0 Bft) O-NO 71 10 min 0,076 mm 302 W/m 1,0 C 4,1 C 4,8 km/h (1 Bft) 97 %
11.02.2017 13:10 4,4 C 4,1 C 4,4 C 78 % 1020,0 hPa 0,0 l/m 0,3 km/h (0 Bft) O-NO 65 10 min 0,000 mm 330 W/m 0,9 C 4,4 C 4,8 km/h (1 Bft) 98 %
11.02.2017 13:20 4,9 C 4,4 C 4,9 C 78 % 1019,7 hPa 0,0 l/m 0,6 km/h (0 Bft) NO 46 10 min 0,000 mm 462 W/m 1,4 C 4,9 C 4,8 km/h (1 Bft) 98 %
11.02.2017 13:30 5,4 C 4,9 C 5,4 C 76 % 1019,5 hPa 0,0 l/m 1,3 km/h (1 Bft) NO 40 10 min 0,000 mm 316 W/m 1,5 C 5,4 C 9,7 km/h (2 Bft) 98 %
11.02.2017 13:40 5,6 C 5,4 C 5,6 C 77 % 1019,5 hPa 0,0 l/m 1,3 km/h (1 Bft) NO 42 10 min 0,000 mm 362 W/m 1,9 C 5,6 C 6,4 km/h (2 Bft) 97 %
11.02.2017 13:50 5,5 C 5,5 C 5,6 C 76 % 1019,2 hPa 0,0 l/m 0,9 km/h (0 Bft) N-NO 32 10 min 0,000 mm 265 W/m 1,6 C 5,5 C 6,4 km/h (2 Bft) 98 %
11.02.2017 14:00 5,8 C 5,5 C 5,8 C 76 % 1019,5 hPa 0,0 l/m 0,1 km/h (0 Bft) N-NO 25 10 min 0,152 mm 373 W/m 1,9 C 5,8 C 6,4 km/h (2 Bft) 97 %
11.02.2017 14:10 6,0 C 5,8 C 6,0 C 75 % 1019,4 hPa 0,0 l/m 0,1 km/h (0 Bft) N-NO 25 10 min 0,000 mm 320 W/m 1,9 C 6,0 C 3,2 km/h (1 Bft) 97 %
11.02.2017 14:20 6,3 C 6,0 C 6,3 C 74 % 1019,2 hPa 0,0 l/m 0,3 km/h (0 Bft) N-NO 26 10 min 0,000 mm 241 W/m 2,0 C 6,3 C 4,8 km/h (1 Bft) 98 %
11.02.2017 14:30 6,4 C 6,3 C 6,4 C 72 % 1019,2 hPa 0,0 l/m 0,2 km/h (0 Bft) N-NO 29 10 min 0,000 mm 155 W/m 1,7 C 6,4 C 4,8 km/h (1 Bft) 97 %
11.02.2017 14:40 6,4 C 6,4 C 6,4 C 72 % 1019,3 hPa 0,0 l/m 0,1 km/h (0 Bft) NO 42 0 min 0,000 mm 134 W/m 1,7 C 6,4 C 3,2 km/h (1 Bft) 98 %
11.02.2017 14:50 6,4 C 6,4 C 6,4 C 73 % 1019,2 hPa 0,0 l/m 0,1 km/h (0 Bft) NO 42 0 min 0,000 mm 137 W/m 1,9 C 6,4 C 3,2 km/h (1 Bft) 97 %
11.02.2017 15:00 6,3 C 6,3 C 6,4 C 73 % 1019,3 hPa 0,0 l/m 0,2 km/h (0 Bft) NO 42 0 min 0,077 mm 135 W/m 1,8 C 6,3 C 3,2 km/h (1 Bft) 98 %
11.02.2017 15:10 6,4 C 6,3 C 6,4 C 74 % 1019,2 hPa 0,0 l/m 0,0 km/h (0 Bft) NO 42 0 min 0,000 mm 125 W/m 2,1 C 6,4 C 1,6 km/h (1 Bft) 97 %
11.02.2017 15:20 6,3 C 6,3 C 6,4 C 74 % 1019,0 hPa 0,0 l/m 1,1 km/h (1 Bft) N-NO 24 0 min 0,000 mm 100 W/m 2,0 C 6,3 C 4,8 km/h (1 Bft) 97 %
11.02.2017 15:30 6,1 C 6,1 C 6,3 C 74 % 1018,7 hPa 0,0 l/m 0,7 km/h (0 Bft) N-NO 26 0 min 0,000 mm 93 W/m 1,8 C 6,1 C 4,8 km/h (1 Bft) 97 %
11.02.2017 15:40 6,1 C 6,1 C 6,1 C 74 % 1018,5 hPa 0,0 l/m 1,3 km/h (1 Bft) O-NO 63 0 min 0,000 mm 132 W/m 1,8 C 6,1 C 4,8 km/h (1 Bft) 97 %
11.02.2017 15:50 6,4 C 6,1 C 6,4 C 74 % 1018,6 hPa 0,0 l/m 0,2 km/h (0 Bft) NO 51 0 min 0,000 mm 84 W/m 2,1 C 6,4 C 6,4 km/h (2 Bft) 98 %
11.02.2017 16:00 6,6 C 6,4 C 6,6 C 73 % 1018,4 hPa 0,0 l/m 0,3 km/h (0 Bft) O 94 0 min 0,050 mm 74 W/m 2,1 C 6,6 C 6,4 km/h (2 Bft) 97 %
11.02.2017 16:10 6,7 C 6,6 C 6,7 C 73 % 1018,7 hPa 0,0 l/m 0,2 km/h (0 Bft) O-NO 70 0 min 0,000 mm 90 W/m 2,2 C 6,7 C 4,8 km/h (1 Bft) 97 %
11.02.2017 16:20 6,6 C 6,6 C 6,7 C 73 % 1018,7 hPa 0,0 l/m 0,8 km/h (0 Bft) N-NO 30 0 min 0,000 mm 63 W/m 2,1 C 6,6 C 6,4 km/h (2 Bft) 97 %
11.02.2017 16:30 6,3 C 6,3 C 6,6 C 73 % 1018,7 hPa 0,0 l/m 2,8 km/h (1 Bft) O-NO 62 0 min 0,000 mm 42 W/m 1,8 C 6,3 C 8,0 km/h (2 Bft) 97 %
11.02.2017 16:40 6,1 C 6,1 C 6,3 C 73 % 1018,6 hPa 0,0 l/m 0,9 km/h (0 Bft) SO 134 0 min 0,000 mm 37 W/m 1,6 C 6,1 C 6,4 km/h (2 Bft) 96 %
11.02.2017 16:50 5,8 C 5,8 C 6,1 C 74 % 1018,7 hPa 0,0 l/m 0,7 km/h (0 Bft) NO 37 0 min 0,000 mm 33 W/m 1,5 C 5,8 C 6,4 km/h (2 Bft) 91 %
11.02.2017 17:00 5,5 C 5,5 C 5,8 C 75 % 1018,5 hPa 0,0 l/m 2,8 km/h (1 Bft) NO 35 0 min 0,026 mm 14 W/m 1,4 C 5,5 C 6,4 km/h (2 Bft) 97 %
11.02.2017 17:10 5,3 C 5,3 C 5,5 C 75 % 1018,7 hPa 0,0 l/m 2,2 km/h (1 Bft) O-NO 65 0 min 0,000 mm 11 W/m 1,2 C 5,3 C 8,0 km/h (2 Bft) 97 %
11.02.2017 17:20 5,1 C 5,1 C 5,3 C 76 % 1018,7 hPa 0,0 l/m 0,9 km/h (0 Bft) NO 55 0 min 0,000 mm 11 W/m 1,2 C 5,1 C 6,4 km/h (2 Bft) 97 %
11.02.2017 17:30 5,1 C 5,1 C 5,1 C 76 % 1018,7 hPa 0,0 l/m 0,8 km/h (0 Bft) O-NO 65 0 min 0,000 mm 0 W/m 1,2 C 5,1 C 8,0 km/h (2 Bft) 98 %
11.02.2017 17:40 5,0 C 5,0 C 5,1 C 76 % 1018,7 hPa 0,0 l/m 1,6 km/h (1 Bft) NO 54 0 min 0,000 mm 0 W/m 1,1 C 5,0 C 8,0 km/h (2 Bft) 97 %
11.02.2017 17:50 4,8 C 4,8 C 5,0 C 76 % 1018,7 hPa 0,0 l/m 1,6 km/h (1 Bft) O-SO 102 0 min 0,000 mm 0 W/m 0,9 C 4,8 C 9,7 km/h (2 Bft) 98 %
11.02.2017 18:00 4,7 C 4,7 C 4,8 C 76 % 1018,8 hPa 0,0 l/m 1,3 km/h (1 Bft) O-NO 66 0 min 0,000 mm 0 W/m 0,8 C 4,7 C 9,7 km/h (2 Bft) 97 %
11.02.2017 18:10 4,5 C 4,5 C 4,7 C 77 % 1019,0 hPa 0,0 l/m 0,5 km/h (0 Bft) O-NO 62 0 min 0,000 mm 0 W/m 0,8 C 4,5 C 6,4 km/h (2 Bft) 98 %
11.02.2017 18:20 4,3 C 4,3 C 4,5 C 78 % 1019,2 hPa 0,0 l/m 0,0 km/h (0 Bft) NO 45 0 min 0,000 mm 0 W/m 0,8 C 4,3 C 1,6 km/h (1 Bft) 98 %
11.02.2017 18:30 4,1 C 4,1 C 4,3 C 79 % 1019,3 hPa 0,0 l/m 0,0 km/h (0 Bft) NO 45 0 min 0,000 mm 0 W/m 0,8 C 4,1 C 0,0 km/h (0 Bft) 97 %
11.02.2017 18:40 3,9 C 3,9 C 4,1 C 80 % 1019,5 hPa 0,0 l/m 0,9 km/h (0 Bft) O-NO 57 0 min 0,000 mm 0 W/m 0,8 C 3,9 C 6,4 km/h (2 Bft) 99 %
11.02.2017 18:50 3,8 C 3,8 C 3,9 C 81 % 1019,5 hPa 0,0 l/m 0,9 km/h (0 Bft) NO 45 0 min 0,000 mm 0 W/m 0,8 C 3,8 C 4,8 km/h (1 Bft) 100 %
11.02.2017 19:00 3,7 C 3,7 C 3,8 C 81 % 1019,5 hPa 0,0 l/m 0,7 km/h (0 Bft) N-NO 32 0 min 0,000 mm 0 W/m 0,7 C 3,7 C 4,8 km/h (1 Bft) 100 %
11.02.2017 19:10 3,7 C 3,7 C 3,7 C 81 % 1019,6 hPa 0,0 l/m 1,3 km/h (1 Bft) NO 34 0 min 0,000 mm 0 W/m 0,7 C 3,7 C 6,4 km/h (2 Bft) 100 %
11.02.2017 19:20 3,6 C 3,6 C 3,7 C 81 % 1019,6 hPa 0,0 l/m 0,9 km/h (0 Bft) O-NO 64 0 min 0,000 mm 0 W/m 0,7 C 3,6 C 11,3 km/h (2 Bft) 100 %
11.02.2017 19:30 3,6 C 3,6 C 3,6 C 81 % 1019,7 hPa 0,0 l/m 2,1 km/h (1 Bft) O-NO 78 0 min 0,000 mm 0 W/m 0,7 C 3,6 C 9,7 km/h (2 Bft) 99 %
11.02.2017 19:40 3,6 C 3,6 C 3,7 C 81 % 1019,8 hPa 0,0 l/m 0,2 km/h (0 Bft) N-NO 20 0 min 0,000 mm 0 W/m 0,7 C 3,6 C 4,8 km/h (1 Bft) 100 %
11.02.2017 19:50 3,6 C 3,6 C 3,6 C 81 % 1019,8 hPa 0,0 l/m 0,4 km/h (0 Bft) N-NO 15 0 min 0,000 mm 0 W/m 0,7 C 3,6 C 8,0 km/h (2 Bft) 100 %
11.02.2017 20:00 3,6 C 3,6 C 3,6 C 81 % 1019,6 hPa 0,0 l/m 2,0 km/h (1 Bft) SO 124 0 min 0,000 mm 0 W/m 0,7 C 3,6 C 14,5 km/h (3 Bft) 100 %
11.02.2017 20:10 3,6 C 3,6 C 3,7 C 80 % 1019,7 hPa 0,0 l/m 3,2 km/h (1 Bft) O-NO 69 0 min 0,000 mm 0 W/m 0,5 C 3,6 C 11,3 km/h (2 Bft) 100 %
11.02.2017 20:20 3,6 C 3,6 C 3,6 C 81 % 1019,8 hPa 0,0 l/m 3,7 km/h (1 Bft) O-NO 69 0 min 0,000 mm 0 W/m 0,7 C 3,6 C 11,3 km/h (2 Bft) 100 %
11.02.2017 20:30 3,6 C 3,6 C 3,6 C 81 % 1019,7 hPa 0,0 l/m 3,5 km/h (1 Bft) O 86 0 min 0,000 mm 0 W/m 0,7 C 3,6 C 17,7 km/h (3 Bft) 100 %
11.02.2017 20:40 3,7 C 3,6 C 3,7 C 80 % 1019,8 hPa 0,0 l/m 4,8 km/h (1 Bft) O 94 0 min 0,000 mm 0 W/m 0,6 C 3,7 C 16,1 km/h (3 Bft) 100 %
11.02.2017 20:50 3,7 C 3,6 C 3,7 C 80 % 1019,9 hPa 0,0 l/m 2,2 km/h (1 Bft) O 96 0 min 0,000 mm 0 W/m 0,6 C 3,7 C 16,1 km/h (3 Bft) 100 %
11.02.2017 21:00 3,4 C 3,4 C 3,7 C 81 % 1020,1 hPa 0,0 l/m 1,0 km/h (0 Bft) N-NW 336 0 min 0,025 mm 0 W/m 0,5 C 3,4 C 9,7 km/h (2 Bft) 100 %
11.02.2017 21:10 3,3 C 3,3 C 3,4 C 81 % 1020,1 hPa 0,0 l/m 0,0 km/h (0 Bft) O-NO 67 0 min 0,000 mm 0 W/m 0,4 C 3,3 C 4,8 km/h (1 Bft) 100 %
11.02.2017 21:20 3,2 C 3,2 C 3,3 C 81 % 1020,4 hPa 0,0 l/m 1,6 km/h (1 Bft) O-NO 67 0 min 0,000 mm 0 W/m 0,3 C 3,2 C 8,0 km/h (2 Bft) 100 %
11.02.2017 21:30 3,1 C 3,1 C 3,2 C 81 % 1020,4 hPa 0,0 l/m 0,0 km/h (0 Bft) N-NO 22 0 min 0,000 mm 0 W/m 0,2 C 3,1 C 6,4 km/h (2 Bft) 100 %
11.02.2017 21:40 2,9 C 2,9 C 3,1 C 82 % 1020,6 hPa 0,0 l/m 0,0 km/h (0 Bft) O 90 0 min 0,000 mm 0 W/m 0,1 C 2,9 C 6,4 km/h (2 Bft) 100 %
11.02.2017 21:50 2,7 C 2,7 C 2,9 C 82 % 1020,6 hPa 0,0 l/m 0,0 km/h (0 Bft) O-NO 67 0 min 0,000 mm 0 W/m -0,1 C 2,7 C 6,4 km/h (2 Bft) 100 %
11.02.2017 22:00 2,4 C 2,4 C 2,7 C 83 % 1020,7 hPa 0,0 l/m 1,6 km/h (1 Bft) N-NO 22 0 min 0,000 mm 0 W/m -0,2 C 2,4 C 9,7 km/h (2 Bft) 100 %
11.02.2017 22:10 2,3 C 2,3 C 2,5 C 83 % 1020,7 hPa 0,0 l/m 0,0 km/h (0 Bft) O 90 0 min 0,000 mm 0 W/m -0,3 C 2,3 C 4,8 km/h (1 Bft) 100 %
11.02.2017 22:20 2,3 C 2,3 C 2,3 C 84 % 1020,9 hPa 0,0 l/m 0,0 km/h (0 Bft) O-NO 67 0 min 0,000 mm 0 W/m -0,1 C 2,3 C 4,8 km/h (1 Bft) 100 %
11.02.2017 22:30 2,3 C 2,3 C 2,3 C 83 % 1020,6 hPa 0,0 l/m 1,6 km/h (1 Bft) O 90 0 min 0,000 mm 0 W/m -0,3 C 2,3 C 8,0 km/h (2 Bft) 100 %
11.02.2017 22:40 2,4 C 2,3 C 2,4 C 83 % 1020,5 hPa 0,0 l/m 1,6 km/h (1 Bft) O-NO 67 0 min 0,000 mm 0 W/m -0,2 C 2,4 C 9,7 km/h (2 Bft) 100 %
11.02.2017 22:50 2,3 C 2,3 C 2,4 C 83 % 1020,5 hPa 0,0 l/m 3,2 km/h (1 Bft) O 90 0 min 0,000 mm 0 W/m -0,3 C 2,3 C 16,1 km/h (3 Bft) 100 %
11.02.2017 23:00 2,3 C 2,3 C 2,4 C 83 % 1020,5 hPa 0,0 l/m 1,6 km/h (1 Bft) O 90 0 min 0,000 mm 0 W/m -0,3 C 2,3 C 8,0 km/h (2 Bft) 100 %
11.02.2017 23:10 2,2 C 2,2 C 2,3 C 83 % 1020,9 hPa 0,0 l/m 1,6 km/h (1 Bft) N-NO 22 0 min 0,000 mm 0 W/m -0,4 C 2,2 C 9,7 km/h (2 Bft) 100 %
11.02.2017 23:20 2,0 C 2,0 C 2,2 C 83 % 1020,7 hPa 0,0 l/m 0,0 km/h (0 Bft) O 90 0 min 0,000 mm 0 W/m -0,6 C 2,0 C 8,0 km/h (2 Bft) 100 %
11.02.2017 23:30 1,8 C 1,8 C 2,0 C 83 % 1020,6 hPa 0,0 l/m 1,6 km/h (1 Bft) O 90 0 min 0,000 mm 0 W/m -0,8 C 1,8 C 14,5 km/h (3 Bft) 100 %
11.02.2017 23:40 1,8 C 1,8 C 1,8 C 83 % 1020,7 hPa 0,0 l/m 1,6 km/h (1 Bft) O-NO 67 0 min 0,000 mm 0 W/m -0,8 C 1,8 C 11,3 km/h (2 Bft) 100 %
11.02.2017 23:50 1,8 C 1,8 C 1,8 C 83 % 1020,8 hPa 0,0 l/m 3,2 km/h (1 Bft) O 90 0 min 0,000 mm 0 W/m -0,8 C 1,8 C 14,5 km/h (3 Bft) 100 %
_ Min-Zeit 05:00 05:00 07:10 14:30 16:00 - 00:00 - - - - - 06:50 06:50 00:20 09:10
Minimum _ -3,6 C -3,6 C -3,6 C 72 % 1018,4 hPa - 0,0 km/h (0 Bft) - - - - - -4,7 C -3,6 C 0,0 km/h (0 Bft) 89 %
_ Max-Zeit 16:10 16:10 16:10 00:40 10:00 00:00 20:40 - - 09:40 14:00 11:30 16:10 16:10 20:30 00:00
Maximum _ 6,7 C 6,6 C 6,7 C 92 % 1021,0 hPa 0,0 l/m 4,8 km/h
O (1 Bft)
- - 10 min 0,152 mm 543 W/m 2,2 C 6,7 C 17,7 km/h
N-NO (3 Bft)
100 %
Durchschnitt _ 1,1 C 1,0 C 1,2 C 85 % 1020,1 hPa #0,0 l/m 0,6 km/h (0 Bft) O-NO - #4:30 h #0,584 mm 173 W/m -1,3 C 1,1 C 4,6 km/h (1 Bft) 99 %
PRIVATE WETTERSTATION BILLIGHEIM-ALLFELD - www.neckar-odenwald-wetter.de - Holger Sonntag